Theta_e
325 325 327 327 327 328 328 328 327 327 325 325 325 326 326 325 324 325 326 326 326 325 329 328 327 328 328 327 324 323 316 301 300 297 296 298 309 320 319 322 323 322 320 310 305 302 301 299 300 299 296 299 298 298 300 297 298 296 290 288 284 286 285 288 287 287 290 289 290 292 291 291 290 291 294 293 292 291 292 291 291 292 293 291 291 292 294 293
324 325 326 326 327 328 328 328 327 327 326 327 326 324 324 324 325 326 325 325 326 327 327 326 326 326 326 325 325 321 305 302 299 297 297 307 319 324 325 324 323 321 316 303 302 301 300 298 298 298 295 294 299 296 300 295 295 291 287 286 285 286 288 288 288 287 287 289 290 291 290 291 290 290 291 290 287 289 289 289 290 290 290 288 290 291 292 291
324 324 325 325 326 327 328 328 327 327 325 325 324 325 324 323 325 326 326 327 327 329 327 325 324 324 324 324 323 318 304 299 299 293 298 319 322 322 322 323 322 321 309 304 305 304 302 300 299 297 294 293 294 296 297 294 295 292 287 286 284 287 288 288 288 289 288 289 290 290 290 290 291 290 291 289 285 289 286 286 287 288 289 287 288 290 290 290
323 323 324 325 325 326 327 327 327 328 325 325 326 327 325 323 323 326 327 327 326 329 325 323 323 324 323 321 319 312 305 299 293 295 300 319 321 322 322 322 323 316 309 307 306 306 304 301 299 298 296 295 295 294 290 292 292 293 287 285 287 288 286 287 288 288 288 287 289 289 291 289 290 289 289 287 286 285 287 289 290 289 290 289 288 289 289 289
322 323 323 323 324 325 325 326 326 327 327 327 326 327 325 324 323 323 326 325 325 325 324 324 322 324 322 320 317 307 300 292 293 298 301 320 321 321 320 321 322 309 306 304 304 303 302 299 297 297 296 291 294 292 290 291 292 290 287 287 287 285 285 288 287 286 287 287 289 288 289 288 291 290 288 288 285 285 285 291 291 292 292 291 288 288 289 288
322 323 324 324 324 325 325 325 326 327 328 327 328 324 323 323 323 322 323 323 324 325 325 323 321 322 320 321 310 308 298 285 297 296 314 319 319 318 318 319 322 309 309 306 303 301 300 297 297 295 293 291 288 287 289 291 293 287 288 287 286 287 287 288 288 287 286 288 287 288 290 289 290 289 288 288 287 289 291 293 293 294 293 292 290 289 287 287
322 322 322 323 323 323 324 325 326 327 327 327 327 323 323 322 323 322 322 322 324 325 324 323 321 321 319 316 308 305 296 294 297 299 313 318 317 315 316 313 318 307 310 302 300 298 296 295 295 296 294 291 291 287 292 292 292 290 285 286 287 287 287 287 287 287 286 287 288 288 289 287 287 285 288 287 290 292 292 292 294 294 294 292 288 289 288 288
322 322 322 322 322 322 323 324 325 325 326 325 324 324 323 323 324 323 322 324 324 324 323 321 321 320 315 309 305 298 294 292 296 301 310 315 305 303 306 301 303 301 300 298 297 296 297 293 293 295 291 290 293 293 295 293 292 291 288 288 288 287 287 286 285 286 287 286 286 288 286 285 285 285 286 287 289 289 290 291 292 294 293 292 291 288 288 288
322 322 322 321 321 321 322 323 323 323 324 323 323 325 324 324 324 323 322 322 323 324 322 321 321 320 317 305 298 296 291 297 299 299 300 300 300 298 299 300 299 298 299 298 297 297 295 294 293 293 291 292 294 293 293 292 289 291 289 288 287 287 287 286 287 286 286 287 288 287 285 286 286 287 286 289 290 290 290 289 290 291 291 290 290 290 290 288
322 321 321 320 320 321 321 322 322 322 322 324 325 326 325 325 323 322 322 323 323 324 323 321 321 317 310 303 298 292 295 298 298 300 299 298 299 298 299 298 298 298 298 296 297 297 295 295 295 296 294 292 294 291 291 293 290 292 291 290 288 287 287 287 286 286 286 287 286 285 283 284 286 288 282 287 289 289 289 288 288 288 290 289 290 290 290 289
322 322 320 320 321 321 322 322 321 321 323 325 325 324 325 325 323 323 323 323 323 324 323 321 320 310 302 303 296 290 298 298 300 299 298 298 300 298 298 297 297 298 296 295 296 297 297 298 297 298 299 292 294 291 293 293 293 291 290 290 289 286 287 287 286 285 286 286 286 285 284 285 285 286 284 287 290 289 289 289 289 288 286 287 288 289 289 289
321 321 319 321 321 322 322 322 321 321 322 323 325 325 324 322 322 323 323 322 323 323 321 321 319 307 302 294 291 293 299 299 299 298 299 299 299 299 299 297 297 297 298 296 297 297 298 299 299 300 294 297 290 291 291 293 292 290 289 287 288 288 287 286 286 286 287 285 287 285 284 283 284 283 287 288 288 289 287 288 288 287 286 286 287 287 287 288
321 320 320 321 322 322 323 322 322 322 322 323 324 322 321 322 321 321 321 320 319 320 321 320 314 307 303 295 293 298 298 298 300 299 300 300 300 300 299 297 298 297 298 297 297 298 300 298 298 294 297 296 291 288 293 292 291 293 289 285 287 285 282 287 288 286 286 287 287 287 278 280 282 286 287 288 288 288 287 287 286 285 286 286 286 286 287 288
321 319 320 321 321 321 321 321 321 322 324 324 323 322 320 320 320 320 320 318 319 321 319 319 308 306 297 291 297 298 300 299 300 300 299 301 300 299 299 298 298 297 298 297 297 297 299 297 299 296 298 294 292 297 291 289 291 286 289 287 281 279 278 286 287 286 285 287 285 290 279 282 284 286 288 288 288 287 285 285 284 285 285 285 286 286 287 288
319 319 319 320 320 322 322 321 320 320 321 320 321 321 321 318 319 320 322 316 316 318 318 319 308 301 293 293 298 302 316 300 299 297 299 299 297 298 297 299 297 297 296 298 297 297 298 300 299 295 291 295 295 293 288 287 287 287 284 278 278 280 279 285 287 287 284 287 287 286 277 280 285 287 287 288 287 286 285 285 285 286 285 286 285 286 286 287
319 319 320 322 320 319 319 319 318 318 319 320 320 320 320 319 319 319 319 316 316 319 313 308 308 299 295 290 296 309 300 296 296 298 298 301 299 296 297 296 297 297 297 296 298 297 297 300 295 292 291 293 290 285 283 284 283 285 282 275 277 279 279 284 287 287 287 287 287 287 282 283 283 286 287 288 287 286 284 285 284 286 286 285 285 286 286 287
319 320 320 319 319 319 319 318 317 317 318 319 320 319 320 319 318 318 318 319 312 313 308 301 300 302 293 298 299 295 294 296 299 298 298 300 299 298 297 296 296 295 296 295 296 297 296 295 293 294 294 288 287 285 280 273 275 278 279 280 279 281 278 277 284 287 286 287 283 285 281 281 286 286 289 290 288 285 284 284 285 285 285 286 285 285 285 287
319 320 319 319 319 319 318 317 317 317 318 318 317 316 312 319 321 315 312 313 312 312 310 310 303 298 293 296 291 292 296 295 296 296 296 297 300 298 297 295 295 295 295 294 296 293 294 291 292 287 288 288 286 281 278 275 278 278 276 278 278 276 279 280 280 285 285 286 283 283 282 283 285 285 286 288 286 286 285 285 285 286 285 286 286 287 289 289
319 320 319 319 319 318 317 317 317 317 317 318 318 321 320 320 313 309 304 303 306 300 293 295 295 288 288 294 294 294 296 297 297 297 296 298 299 299 297 297 295 294 292 291 291 291 292 290 288 285 285 284 284 281 280 281 281 281 281 279 278 277 278 279 282 286 285 282 281 280 280 283 286 284 286 286 286 286 285 285 285 284 284 286 287 288 289 289
320 319 319 318 318 317 317 317 317 316 318 310 308 311 308 299 300 300 302 298 294 298 297 295 297 296 294 292 293 296 298 297 295 296 297 300 298 297 295 296 297 296 292 288 292 291 292 286 282 281 279 280 285 285 284 286 286 283 282 281 279 279 280 283 284 286 285 283 279 281 280 281 285 284 285 285 285 285 285 285 285 285 286 286 286 287 287 288
320 319 318 317 317 317 317 317 316 316 316 310 309 304 295 295 296 294 293 295 295 297 296 296 295 293 292 294 295 294 291 293 294 295 297 300 298 296 294 294 292 290 288 291 290 295 289 284 280 281 285 286 286 287 286 286 285 284 281 280 278 279 277 282 285 286 285 283 278 279 280 282 284 283 285 285 284 284 284 284 284 286 286 286 286 286 286 287
318 318 317 317 317 317 317 316 316 316 317 309 309 302 302 300 304 305 298 291 298 298 297 295 295 294 295 295 296 297 294 291 293 294 297 299 298 293 292 294 291 286 289 291 289 285 285 283 283 288 288 287 287 286 286 284 283 282 281 277 277 277 279 285 284 284 285 283 280 280 280 282 284 284 284 284 285 285 286 286 285 285 285 286 286 285 285 285
317 317 317 317 317 317 317 316 315 315 310 307 305 303 301 306 307 305 300 294 292 298 298 295 294 293 293 296 296 297 292 292 291 294 294 296 295 293 291 291 288 291 292 292 288 283 282 283 289 287 287 287 286 286 285 283 282 280 279 279 276 277 278 275 281 282 285 281 279 280 279 282 282 283 283 283 286 286 287 287 286 286 286 285 285 285 285 285
317 316 316 316 316 316 316 316 315 309 303 304 303 303 306 306 306 306 301 295 292 297 298 296 294 295 293 293 297 296 292 293 292 292 295 294 292 294 292 290 288 289 289 289 289 286 283 286 286 287 285 287 285 285 283 281 278 278 280 278 277 280 280 280 277 282 282 280 282 280 278 277 279 280 282 283 285 286 285 285 285 285 285 286 286 286 286 285
316 316 316 316 316 316 315 315 308 304 303 305 302 305 304 306 305 306 297 292 291 295 300 301 297 295 294 298 297 295 293 294 292 293 294 293 290 296 294 295 291 285 290 289 287 286 285 286 287 286 286 285 284 281 280 282 278 276 280 281 281 279 280 279 279 280 277 274 280 280 273 273 277 279 281 281 283 284 283 284 283 284 284 284 284 284 285 286
316 316 316 316 315 315 317 309 306 308 307 302 304 305 305 304 305 303 297 286 282 292 298 294 297 294 298 297 294 294 294 291 293 291 296 293 296 296 295 291 290 286 288 286 285 284 284 287 286 285 284 284 283 281 281 282 278 277 278 281 280 279 280 280 278 278 271 271 278 282 275 267 274 279 279 280 281 281 282 282 282 282 283 283 284 284 285 285
316 316 316 316 316 315 300 298 306 309 302 307 304 305 303 304 306 305 294 285 283 291 291 299 295 295 299 296 293 296 284 289 293 295 293 296 296 300 291 288 291 291 291 288 283 278 285 284 283 283 284 282 281 281 282 280 276 276 280 279 280 281 280 279 278 277 275 277 279 280 277 270 271 276 279 279 280 279 280 281 281 282 283 283 284 284 284 284
314 315 316 316 316 313 298 302 303 303 301 304 304 302 303 306 307 307 288 277 277 294 291 292 299 301 297 297 295 294 293 295 290 295 293 297 297 297 292 287 288 289 290 285 276 281 287 283 282 283 281 280 279 280 282 282 279 278 281 280 280 281 279 279 278 276 275 276 273 275 279 274 270 275 278 279 279 277 278 279 280 281 282 283 283 284 284 284
313 314 315 316 316 315 308 305 306 304 304 301 300 301 305 308 305 295 284 277 288 290 301 296 303 298 297 297 294 293 292 294 289 294 296 297 296 296 289 291 290 288 288 286 278 279 286 285 283 284 281 279 280 280 280 283 280 282 282 282 280 280 280 280 276 276 273 273 268 273 278 270 271 276 277 278 277 277 277 279 280 281 282 282 283 283 283 283
313 313 315 316 315 311 302 306 301 303 303 301 300 302 307 307 299 287 281 275 294 287 296 297 296 290 293 288 290 293 292 292 291 294 294 291 293 294 290 294 291 286 283 285 285 282 286 288 288 284 281 282 280 280 282 283 283 284 282 281 278 278 278 277 275 274 271 267 270 275 277 275 266 275 276 276 276 277 278 278 279 280 281 281 282 282 282 282
313 313 313 314 301 305 305 304 305 303 303 304 304 307 307 297 287 282 276 283 293 293 294 291 289 293 287 285 281 288 289 289 290 289 286 291 288 289 289 288 287 280 279 276 281 282 284 284 284 283 286 286 283 282 284 282 282 281 278 277 276 275 275 274 272 272 266 265 271 274 277 276 268 272 277 277 277 278 279 278 278 279 280 281 281 282 282 281
313 313 313 307 307 309 297 297 302 305 304 304 307 306 296 285 287 279 281 293 284 285 285 282 287 286 287 286 284 284 283 285 288 285 283 281 281 282 283 279 281 275 273 275 275 280 281 281 282 285 286 285 282 281 279 279 280 279 275 274 273 268 269 265 268 267 266 266 273 275 277 275 273 273 276 279 278 278 278 279 279 280 280 280 281 281 281 281
313 312 313 307 306 300 302 304 304 303 303 303 305 297 288 283 277 282 281 284 283 286 284 286 284 286 285 285 283 284 284 282 286 286 285 285 282 282 284 283 283 280 275 275 277 276 277 281 281 284 284 286 282 278 276 278 279 277 277 273 269 265 262 263 263 266 267 274 275 274 277 273 274 276 278 279 280 281 280 279 280 280 280 280 281 280 281 281
313 311 302 303 303 304 304 304 304 304 302 303 296 290 285 280 278 287 281 282 283 287 288 286 284 283 284 282 283 282 278 284 282 283 285 282 280 280 280 280 282 279 277 277 277 276 272 275 280 282 282 283 282 280 279 278 277 277 278 277 269 266 266 264 265 264 266 267 273 275 272 266 270 275 278 280 280 280 279 279 279 279 280 280 279 280 280 280
311 307 301 303 305 305 304 304 304 303 303 297 290 284 280 279 280 278 277 279 280 284 284 285 283 282 282 281 283 283 282 279 284 281 281 278 278 278 279 278 280 281 280 276 276 276 278 276 280 282 282 281 282 282 281 279 277 279 278 277 273 269 272 268 266 267 264 267 266 268 269 272 274 280 279 279 278 278 279 279 280 281 280 281 281 281 280 279
311 307 308 303 303 303 304 307 303 303 299 290 283 280 280 280 279 281 282 286 284 282 282 281 282 279 278 278 282 279 285 280 279 280 278 279 281 280 282 280 279 282 277 275 277 274 275 275 282 281 281 278 279 282 282 282 272 278 278 272 276 277 277 268 271 274 272 267 267 267 274 275 279 279 278 277 278 278 278 279 279 280 280 280 280 280 278 278
305 305 303 304 304 303 304 304 303 302 298 289 281 280 281 282 283 282 288 284 284 283 281 278 279 279 277 276 280 276 280 282 280 280 277 281 279 281 281 282 283 281 281 279 275 278 273 275 279 280 281 281 279 279 281 280 281 276 271 274 279 279 278 272 266 264 265 265 266 272 268 269 270 268 277 276 276 276 277 277 278 280 279 279 279 278 278 278
303 300 299 303 302 303 305 305 302 299 294 285 282 290 285 283 286 286 285 284 285 284 280 279 279 282 276 277 276 277 279 279 280 279 279 280 279 284 282 281 284 281 281 281 278 277 279 271 276 279 280 281 280 281 278 282 281 278 276 281 275 270 268 270 266 264 262 262 264 267 268 269 272 271 275 275 274 276 276 277 277 278 277 277 277 277 277 277
303 298 295 303 304 304 303 303 303 296 288 282 282 284 285 284 285 284 284 284 284 284 279 281 278 281 281 277 278 277 278 277 277 279 278 281 278 283 281 282 283 282 280 282 279 278 279 271 275 280 279 281 278 278 273 274 278 280 280 278 279 275 268 267 269 264 267 263 262 262 268 269 272 272 276 274 272 276 277 277 277 277 277 277 277 277 277 277
295 291 292 304 304 304 303 305 299 290 284 283 282 282 285 285 285 284 283 286 284 282 280 280 282 278 279 281 280 278 280 280 280 279 280 281 280 283 279 282 280 279 280 280 279 280 275 278 269 275 279 279 275 276 275 274 272 274 273 273 274 273 275 272 271 270 269 264 262 263 262 267 275 277 277 276 277 277 277 276 276 276 276 276 276 277 276 277
296 291 292 303 303 304 306 294 287 282 282 284 285 285 285 286 285 285 286 287 285 287 282 283 282 280 282 280 280 282 280 278 280 279 281 279 279 277 281 279 280 278 279 280 277 277 274 275 271 274 274 274 277 277 277 277 275 274 274 269 273 271 272 267 269 268 267 268 265 263 266 270 277 280 278 277 277 276 276 275 275 275 276 276 277 276 276 277
291 284 290 301 302 306 297 286 283 283 282 282 285 288 289 292 285 285 285 285 286 283 285 283 283 283 282 282 282 280 281 278 279 279 280 278 281 279 282 281 281 281 276 276 276 279 278 276 275 271 274 277 277 279 278 279 279 278 277 276 274 271 268 267 265 265 266 266 268 266 266 267 277 279 279 278 277 276 276 275 275 275 275 275 276 276 276 277
291 290 299 300 300 303 292 283 283 283 281 284 286 287 287 287 285 285 286 286 286 286 284 284 285 283 283 282 281 280 281 277 281 278 280 280 279 280 281 280 281 279 279 275 276 279 285 272 269 273 276 276 276 277 276 277 280 279 278 276 276 273 272 269 268 264 265 266 269 269 266 269 277 279 278 277 276 276 275 275 274 275 275 276 276 276 276 276
293 292 294 301 305 300 288 282 282 280 281 284 285 285 286 286 285 285 285 285 284 282 282 283 284 285 283 283 281 280 282 275 281 279 278 280 279 282 280 280 281 279 279 277 275 279 273 274 274 267 268 271 271 276 276 277 277 275 275 275 274 271 269 269 268 266 268 265 271 266 264 266 276 277 277 276 276 275 275 275 275 274 275 275 275 276 276 276
291 292 292 294 299 296 287 285 282 281 282 283 283 282 283 285 284 285 285 285 284 283 282 282 284 284 282 283 282 282 282 281 277 280 278 278 278 281 279 281 281 278 281 281 285 280 275 274 273 268 266 266 265 265 267 269 269 276 277 275 274 272 270 271 270 265 265 267 270 264 264 272 276 277 276 275 275 274 275 275 275 276 276 275 276 275 276 276
287 282 287 288 292 290 286 286 285 283 279 280 280 283 282 283 285 285 285 284 284 284 282 284 283 282 281 282 281 281 281 282 280 276 275 277 276 281 281 280 280 280 283 285 282 279 273 274 276 271 269 270 273 274 276 279 276 271 271 273 270 272 269 269 266 266 266 265 266 269 270 272 274 274 274 274 274 273 274 274 274 275 275 276 275 275 275 275
288 283 282 280 283 286 284 283 282 282 284 284 282 282 279 282 283 283 288 284 284 284 284 283 283 283 282 282 280 280 281 282 281 280 275 274 274 278 280 280 281 281 284 282 283 274 272 269 272 275 274 276 276 277 278 278 275 276 273 271 270 270 270 271 270 268 269 266 266 272 273 269 272 272 273 273 273 273 274 274 274 274 275 274 274 274 276 275
286 285 284 283 287 283 281 282 283 284 285 284 281 283 281 281 281 280 284 284 284 283 283 283 282 282 282 282 282 276 279 280 280 275 275 274 276 276 278 281 279 283 281 279 277 274 271 271 270 272 269 272 275 276 277 277 276 276 276 274 271 270 269 269 266 271 273 267 268 272 273 270 272 272 273 273 273 273 273 273 274 274 274 274 274 273 274 274
286 285 284 287 287 283 283 285 285 286 284 283 283 283 281 282 281 282 282 282 283 282 283 278 282 282 282 282 282 277 279 274 274 276 274 274 274 274 273 277 280 280 278 277 276 273 272 267 268 271 273 276 276 277 277 275 275 275 274 275 275 272 270 270 270 271 273 270 273 273 272 272 272 271 273 273 274 274 274 274 274 273 273 274 273 273 273 273
286 287 286 284 283 281 282 283 285 283 284 286 281 285 283 282 282 282 283 283 280 282 283 281 281 282 282 282 282 278 279 281 279 275 275 275 275 274 273 275 275 278 278 275 275 275 274 270 277 271 269 273 276 276 274 276 275 275 275 275 275 275 274 272 270 272 271 269 271 272 270 270 273 274 273 274 274 275 274 273 273 273 273 273 273 273 272 272
291 289 290 287 284 283 281 282 284 283 282 280 281 284 285 283 283 283 283 284 284 283 283 283 283 281 280 282 281 281 281 280 281 281 280 279 274 278 275 274 279 274 274 273 274 272 271 269 269 269 269 270 275 275 275 276 276 273 272 273 273 272 268 270 267 272 269 266 270 267 267 268 273 274 273 273 273 273 272 272 272 273 273 274 272 272 272 271
288 289 291 287 285 284 284 281 282 283 280 282 284 284 284 284 284 284 281 284 282 284 284 283 281 283 280 281 280 282 282 281 280 280 279 279 279 279 278 279 279 277 273 273 272 273 271 269 269 267 269 266 274 275 275 275 272 266 266 272 273 273 273 273 274 274 274 273 267 264 267 272 272 273 272 272 273 272 272 272 272 273 273 273 272 271 271 269
Wind_Speed
6 6 6 6 6 6 5 5 5 6 7 8 7 7 7 7 7 8 7 6 4 5 4 5 7 7 8 8 7 7 6 2 3 4 8 3 5 9 11 11 10 11 10 5 4 7 8 7 4 4 3 2 2 1 1 3 1 3 1 1 1 1 1 1 0 0 1 4 2 2 4 4 1 1 1 1 1 1 0 2 3 3 2 2 1 5 10 12
5 5 6 6 6 6 6 5 5 6 6 7 7 8 8 8 7 7 8 8 8 6 6 6 6 6 7 8 6 6 3 1 1 5 2 2 7 8 9 9 8 6 7 1 5 4 5 8 7 8 5 2 1 1 1 1 1 1 0 2 2 1 0 1 1 1 1 1 5 5 4 4 4 6 2 1 3 2 5 4 2 4 2 3 5 7 11 12
6 5 6 6 6 6 6 6 5 5 6 6 8 8 8 8 7 7 7 7 7 7 6 6 6 6 6 6 6 5 2 2 0 4 2 4 7 9 8 6 5 2 1 1 1 1 2 5 7 5 3 1 1 0 1 1 2 0 1 0 1 2 1 2 3 1 1 1 4 4 4 3 1 4 1 2 3 0 7 5 1 6 8 7 6 8 10 12
5 5 5 5 5 5 5 5 5 5 5 7 7 6 7 8 8 7 7 7 7 6 7 8 8 6 4 5 6 3 1 3 1 2 2 9 12 12 11 8 4 1 0 2 2 3 4 6 6 3 2 2 1 3 4 2 2 1 3 1 1 1 1 2 3 1 2 3 1 3 0 0 2 4 4 3 2 5 8 6 8 10 13 10 10 10 9 10
6 5 5 4 5 5 5 5 4 4 4 5 7 6 7 7 8 8 7 8 7 7 8 9 9 5 4 4 5 2 2 2 1 1 4 11 12 14 12 10 4 0 0 2 4 4 2 4 4 2 2 2 3 2 1 2 1 2 1 1 0 2 3 1 2 2 1 4 3 2 2 3 1 1 4 3 5 9 5 5 9 9 8 8 11 10 8 9
7 6 5 5 4 4 4 4 5 4 4 4 5 6 7 8 8 8 8 8 8 7 6 7 8 4 4 4 3 2 2 1 1 2 8 10 13 14 14 12 5 2 2 3 1 7 6 4 1 0 0 2 0 2 2 1 1 0 1 1 2 1 3 2 0 2 3 2 1 1 1 2 1 3 2 5 10 7 5 4 4 5 6 6 13 10 8 9
8 7 6 5 5 4 5 5 5 4 5 5 4 6 7 7 8 8 8 8 8 7 5 5 6 3 4 3 1 2 2 1 1 6 9 10 12 13 15 12 1 0 1 4 4 1 2 5 3 0 0 2 1 3 1 1 2 3 2 1 2 3 2 1 1 1 1 4 0 1 1 1 1 4 2 5 11 12 6 4 3 3 5 9 10 12 13 13
7 6 6 6 5 5 5 5 5 5 5 5 6 6 7 7 7 8 8 8 7 5 4 5 6 6 1 1 1 2 1 1 4 5 9 10 11 11 12 5 2 3 1 3 2 4 2 4 1 0 3 2 1 2 2 1 5 1 0 0 1 3 2 1 2 1 0 2 2 1 2 6 4 4 4 10 12 8 6 5 6 4 5 4 7 10 9 10
6 6 6 6 5 5 4 4 5 6 6 7 8 7 8 7 7 7 8 8 7 5 2 4 5 6 3 1 2 1 1 1 3 7 8 9 10 9 9 5 7 5 0 3 4 2 3 2 3 2 1 1 0 4 2 2 1 0 1 1 1 1 3 3 1 2 3 2 2 1 6 7 6 7 7 17 14 10 6 5 5 4 5 5 5 4 6 9
7 6 5 5 5 5 5 5 5 6 8 8 8 8 8 8 7 7 7 8 7 5 2 1 6 4 1 1 2 1 1 2 5 6 8 8 9 9 10 7 7 7 1 4 5 6 3 0 1 1 4 2 2 1 1 2 1 2 1 1 3 3 3 2 3 3 4 2 1 3 4 5 3 1 7 3 5 5 2 6 5 5 5 4 4 4 4 6
7 6 7 7 7 6 6 6 6 7 7 8 8 8 8 7 7 7 7 7 7 6 3 1 4 2 1 0 0 1 1 2 1 4 7 7 9 8 7 8 6 4 3 4 3 0 0 0 1 1 3 1 1 0 1 1 1 1 2 1 2 3 2 3 2 3 1 2 2 4 6 6 2 2 8 5 1 3 5 1 1 2 3 5 5 5 4 4
6 6 7 7 7 6 6 7 7 7 8 8 8 7 6 7 7 7 6 7 6 5 5 3 3 0 0 5 2 1 2 3 3 4 4 5 6 7 9 7 3 3 1 1 1 1 0 1 2 1 1 0 0 0 0 1 1 1 3 0 3 1 1 2 2 3 2 2 2 3 3 2 2 5 11 9 3 2 4 2 2 3 3 4 5 4 3 5
6 6 6 7 6 6 6 6 7 8 9 8 8 7 6 7 7 7 5 6 4 6 5 4 4 0 2 1 1 4 2 2 3 6 4 3 5 5 4 5 3 4 2 3 0 2 1 1 4 5 0 2 2 1 1 2 0 1 1 3 3 2 4 6 1 1 1 2 2 4 4 6 7 12 10 5 4 2 3 2 4 4 3 3 4 3 2 1
5 6 6 6 6 6 6 6 7 8 8 8 9 8 7 7 8 8 6 5 8 6 7 5 1 2 2 1 3 3 1 2 2 3 3 3 7 7 4 4 3 2 1 2 1 1 1 4 7 5 2 2 1 1 2 2 2 1 1 3 2 2 4 0 0 1 0 1 2 0 2 10 3 8 10 7 6 6 4 4 4 4 3 4 4 4 2 2
5 5 6 6 6 5 6 8 9 10 9 10 11 10 8 8 8 8 8 7 7 7 8 4 1 2 2 2 3 3 2 0 2 2 1 5 3 5 5 8 6 2 2 0 0 2 1 1 2 2 1 0 2 2 1 0 1 0 1 2 2 3 4 3 2 1 2 1 2 3 1 7 7 10 4 4 4 4 3 1 3 6 4 5 4 3 3 2
6 6 6 5 6 7 8 9 10 11 12 10 10 11 11 9 7 10 9 6 9 8 2 2 2 1 1 2 0 1 1 1 2 3 2 1 1 2 4 5 6 5 3 3 1 2 2 4 3 2 2 2 4 4 2 2 2 1 1 3 3 0 2 4 1 1 5 0 1 2 4 6 5 1 1 1 4 4 4 4 5 6 7 5 4 2 1 2
6 6 6 6 7 8 8 10 11 12 12 12 11 12 9 9 8 10 15 7 5 3 1 0 3 1 1 1 1 1 1 1 1 2 5 2 1 2 4 4 2 3 2 5 3 1 2 1 0 2 1 1 2 3 2 3 2 2 2 2 2 2 2 3 2 1 1 1 2 1 2 7 11 3 9 9 5 6 5 5 5 6 5 5 5 4 6 10
7 6 6 7 8 8 9 11 12 12 12 13 11 9 7 3 5 9 7 3 2 0 1 1 1 3 1 1 1 2 1 3 4 3 3 3 1 3 1 1 3 7 2 1 0 0 1 0 1 2 1 1 2 3 2 4 3 3 3 3 6 2 1 5 2 1 2 0 3 1 3 11 14 3 6 7 5 9 7 6 7 7 6 6 9 11 12 11
8 7 7 7 8 9 10 11 13 13 12 14 14 8 3 2 2 1 2 3 1 2 1 2 3 2 1 2 3 5 3 4 1 1 3 2 2 1 2 2 3 2 2 1 1 3 2 2 3 3 1 1 2 2 3 6 5 4 5 4 2 3 5 4 4 1 1 1 4 5 5 7 14 5 5 4 4 11 7 7 7 6 7 10 10 10 10 10
7 8 7 8 9 10 11 12 13 13 11 9 7 3 3 5 4 1 5 7 4 1 1 1 0 2 3 4 4 5 4 3 2 2 2 1 4 4 3 2 1 0 0 1 1 0 0 0 1 4 6 4 1 2 2 3 3 1 1 1 5 5 6 4 1 2 1 1 5 6 3 5 13 3 3 2 1 8 8 8 7 9 10 9 9 9 8 9
6 7 7 8 9 10 10 12 14 13 11 1 3 4 2 0 1 2 4 2 2 1 1 2 3 1 0 1 2 5 4 2 1 1 2 5 2 1 2 1 0 1 2 2 2 0 2 2 6 7 2 3 1 1 1 1 1 1 1 1 7 1 7 4 2 0 2 1 3 2 4 8 13 4 6 0 4 6 7 8 12 12 9 8 9 8 7 5
7 7 7 8 9 9 10 11 13 13 8 0 2 3 2 1 0 0 1 3 1 2 3 4 1 1 2 0 1 1 2 1 1 4 3 7 1 1 2 1 0 2 1 0 2 3 2 4 2 1 2 2 1 1 1 2 1 0 2 2 1 7 5 2 1 1 1 1 8 2 5 11 11 8 4 7 6 4 7 10 9 11 10 8 9 8 7 7
7 7 8 9 9 9 10 11 12 10 4 5 3 2 1 1 3 1 2 1 3 1 0 1 1 1 1 1 1 2 1 0 1 2 6 6 3 2 1 2 3 1 2 1 2 1 5 2 2 1 2 1 0 1 1 1 1 2 1 0 5 4 3 6 1 2 1 1 5 2 6 11 5 5 6 4 8 7 9 11 9 9 11 10 8 7 7 7
7 7 7 8 9 9 10 11 9 3 4 3 4 2 1 2 4 3 2 2 1 0 0 1 0 1 1 0 0 1 0 1 1 3 4 3 1 1 1 1 2 2 1 1 1 2 6 1 0 1 1 0 1 0 1 0 3 2 3 3 3 4 2 3 4 3 3 3 1 3 4 6 1 4 6 5 5 11 7 11 9 7 7 7 6 7 7 8
7 7 8 8 10 10 10 8 5 1 0 2 2 0 3 3 3 2 2 3 1 0 2 1 2 0 1 1 1 0 0 0 0 1 2 2 3 1 1 0 0 1 0 0 2 2 5 2 1 1 0 0 1 2 3 3 2 2 1 3 3 1 0 3 3 7 7 3 1 1 7 3 2 2 7 3 5 9 4 11 7 7 7 7 8 8 7 7
7 7 8 8 10 13 6 3 2 1 2 1 1 2 4 3 3 2 2 2 1 1 1 1 0 1 0 0 1 2 1 1 1 2 1 1 2 1 0 0 1 1 0 2 2 2 1 1 1 1 1 0 0 1 3 4 1 1 2 3 2 2 0 1 4 4 3 1 1 2 2 4 3 2 4 5 7 7 4 8 6 7 7 6 7 7 8 8
8 8 8 9 9 11 4 1 1 1 1 0 1 4 4 3 1 3 1 2 1 0 1 1 1 0 2 1 0 0 2 1 1 2 1 2 1 1 0 2 1 1 1 0 3 2 1 2 2 1 1 1 0 1 1 3 3 3 1 3 0 0 3 3 1 2 5 2 5 2 5 4 4 5 2 5 9 6 6 6 7 6 7 6 6 7 8 9
10 10 8 8 7 8 1 0 4 1 1 1 3 3 3 3 2 2 1 2 1 1 1 2 0 1 1 2 2 1 1 3 1 0 1 1 0 0 1 1 0 2 1 2 3 2 0 0 0 0 2 1 2 2 3 1 2 2 2 3 2 1 3 0 1 2 2 2 8 3 2 1 4 2 3 5 11 5 5 6 5 6 6 7 7 8 8 8
10 11 10 7 5 3 1 1 1 0 1 2 3 3 2 1 3 1 3 1 0 2 2 1 0 0 1 2 2 1 2 1 0 1 1 1 2 0 1 1 0 0 2 2 5 2 1 0 2 3 2 3 3 1 0 1 1 1 2 1 0 0 0 1 1 1 2 2 6 3 5 3 6 3 6 1 5 6 5 5 6 6 7 7 7 7 7 7
11 12 13 10 3 3 3 3 2 1 0 2 3 3 1 1 1 1 3 1 1 1 0 1 1 4 3 4 1 3 2 2 1 3 2 1 2 2 0 1 0 1 1 3 1 5 1 2 4 3 1 1 1 1 0 0 1 0 1 2 3 3 1 1 3 1 2 1 7 4 6 4 1 7 7 7 5 7 6 3 3 4 5 5 6 7 6 6
11 12 15 9 3 0 0 1 2 1 1 1 2 1 1 2 1 2 1 1 1 1 1 3 1 4 4 5 5 3 2 2 4 3 2 3 3 4 3 1 3 2 2 3 1 3 1 2 1 1 2 1 1 2 2 1 1 2 1 1 4 2 3 2 2 3 1 5 4 3 3 2 2 1 2 2 1 7 8 8 7 6 6 6 5 5 6 6
10 11 12 7 1 0 3 2 2 0 1 1 1 0 1 1 3 2 1 2 0 3 1 3 1 0 3 1 2 3 4 5 1 3 4 2 3 6 5 3 3 5 4 3 4 3 1 1 1 3 2 4 0 2 3 4 3 2 2 4 5 6 3 2 2 2 3 5 1 1 1 2 5 3 4 2 5 3 5 7 8 7 6 5 5 6 5 5
9 10 6 5 4 2 0 1 1 2 1 1 1 1 2 4 0 2 1 3 0 1 3 2 3 4 2 1 2 3 2 0 2 1 1 1 3 2 0 4 1 1 2 2 3 6 3 1 3 2 3 3 1 2 4 2 1 3 1 1 2 3 2 3 5 2 2 3 2 2 1 3 1 2 1 5 4 6 7 6 6 7 7 6 5 5 5 5
7 6 2 2 1 1 0 0 1 0 2 1 2 5 6 2 1 1 0 1 1 1 2 1 5 4 2 2 2 3 4 1 3 4 2 1 3 1 4 5 7 5 2 2 2 1 3 4 1 0 0 1 0 1 2 2 1 3 1 1 4 4 1 3 1 2 4 6 2 2 1 3 1 1 4 5 5 7 6 6 5 5 6 5 4 4 4 4
5 2 2 1 1 1 0 1 1 0 1 3 6 5 2 1 0 0 2 2 2 2 2 1 2 2 2 2 1 2 1 2 1 4 3 3 3 1 3 5 6 2 0 2 1 1 3 6 2 1 1 0 1 0 1 1 0 1 1 4 2 2 3 4 4 1 3 5 5 1 2 2 1 0 2 4 6 5 5 6 7 6 5 5 4 4 4 4
4 1 2 1 1 1 0 0 1 1 3 4 4 2 0 1 1 1 0 1 1 2 7 4 1 3 2 1 1 3 4 1 5 3 1 2 0 1 0 0 2 3 1 1 1 1 4 2 0 3 3 0 1 1 0 0 0 1 1 1 2 2 2 2 5 3 1 2 6 2 1 3 1 0 3 4 7 4 6 6 7 5 4 4 3 4 4 4
2 0 1 2 1 1 0 0 1 1 4 7 4 0 1 0 0 1 2 0 1 0 2 4 3 2 3 3 1 5 2 1 2 3 3 1 1 2 1 0 3 1 1 2 4 1 1 8 4 2 2 0 2 1 0 2 1 1 0 3 2 2 1 2 3 4 1 3 5 1 5 1 2 2 4 3 6 4 5 5 4 4 4 3 4 3 4 4
1 1 0 1 1 0 0 0 1 4 4 3 1 2 0 1 0 0 1 1 1 1 2 1 2 5 1 1 4 3 6 3 7 4 2 0 0 0 0 0 1 2 1 2 1 2 1 6 4 0 2 4 2 0 2 0 1 2 2 0 1 1 2 1 3 3 3 3 4 3 2 2 7 4 5 3 4 3 4 4 4 4 4 4 4 4 4 3
1 1 1 2 1 0 0 0 2 5 3 5 1 1 1 1 1 0 2 2 1 0 1 0 0 2 1 1 1 1 2 3 2 2 2 1 2 1 2 1 0 1 2 0 0 3 2 1 6 1 1 0 1 1 3 1 2 0 1 1 0 2 3 0 4 2 3 6 3 7 1 4 2 3 9 4 3 3 4 3 5 4 5 5 4 4 3 5
2 2 1 1 1 0 0 0 3 5 4 3 0 0 1 0 1 2 1 0 0 1 0 0 1 1 3 0 0 1 2 0 0 2 1 2 1 2 1 6 0 6 4 2 1 0 2 1 4 3 2 2 3 1 3 4 1 1 1 1 2 0 3 3 1 2 2 3 2 3 5 2 5 1 9 7 4 5 5 5 4 4 4 4 4 4 5 9
1 2 1 2 2 0 1 7 7 4 3 0 1 1 1 0 0 1 2 2 0 1 0 0 0 0 1 2 2 0 1 2 1 1 0 2 2 2 0 0 1 3 4 1 1 2 1 1 4 5 7 2 7 1 2 1 2 3 6 4 5 1 2 2 9 2 1 1 3 0 9 1 5 5 9 8 4 5 4 5 4 4 5 5 6 6 7 9
2 2 2 2 3 1 2 3 2 0 3 2 1 0 0 1 1 1 1 0 1 0 2 1 0 0 1 0 1 2 2 2 1 1 1 0 1 0 0 1 1 0 1 0 0 1 1 1 0 6 5 8 3 2 2 2 2 2 3 1 2 1 4 1 3 4 2 2 1 3 1 5 2 4 6 5 4 4 4 4 4 4 4 4 5 5 6 7
2 0 3 4 3 3 4 3 1 5 2 1 1 0 0 0 1 2 0 0 1 1 1 1 0 0 0 0 2 2 0 1 0 1 1 0 1 1 3 4 3 4 2 2 1 0 2 0 2 6 7 2 2 3 3 1 0 0 0 1 0 2 2 3 2 3 3 2 3 3 4 4 2 3 5 4 3 4 3 3 4 5 4 6 6 8 7 6
0 0 2 2 2 2 6 2 2 2 0 1 0 0 1 0 1 1 0 1 0 2 1 0 1 1 1 0 0 1 1 1 1 2 1 0 1 1 4 2 2 0 0 0 1 2 2 2 2 4 4 6 5 2 1 1 1 1 1 1 2 3 4 2 2 1 1 5 8 4 8 2 5 3 3 4 1 4 3 4 4 4 4 3 5 6 6 8
0 1 0 5 7 6 2 2 2 1 0 0 0 2 1 1 0 1 0 0 0 0 0 1 1 1 1 0 1 1 2 3 2 1 0 0 1 0 6 2 2 0 0 3 2 2 1 4 1 2 4 7 8 6 6 5 3 4 1 1 1 5 4 3 2 1 1 3 2 2 5 2 6 5 3 2 2 1 2 1 2 4 9 12 11 8 8 9
1 1 5 3 7 6 4 1 2 2 1 1 2 1 1 1 0 1 2 0 0 0 0 0 1 0 0 1 2 0 1 1 3 2 2 2 1 1 1 3 2 0 2 2 2 1 1 1 2 4 5 7 8 5 3 1 4 4 8 2 6 1 1 3 3 2 5 3 3 7 4 7 9 10 14 14 13 14 15 15 14 13 11 11 7 6 7 7
0 3 1 3 5 6 2 4 2 2 1 1 1 0 4 1 1 1 1 0 0 0 0 1 0 1 1 2 1 2 1 1 1 1 1 2 1 1 4 1 3 2 2 2 2 1 1 2 3 3 6 7 4 6 8 3 6 8 7 6 0 4 5 4 5 6 4 3 10 1 0 5 5 4 6 8 8 9 8 9 11 11 12 8 6 5 8 7
3 1 2 1 1 2 3 4 5 3 1 1 0 0 1 2 2 1 1 0 0 0 0 1 0 1 1 1 0 1 2 4 0 1 2 1 2 2 2 1 1 1 2 1 1 1 0 1 6 3 8 5 7 9 11 7 5 7 6 5 4 4 4 7 7 7 1 3 11 5 8 6 6 4 4 6 6 9 9 8 8 8 9 5 5 10 11 14
3 0 1 1 0 1 1 0 1 1 3 1 0 2 2 1 2 1 1 2 1 1 0 0 1 2 1 1 1 1 1 4 3 1 2 3 2 2 2 1 0 2 2 1 2 1 1 3 4 3 5 9 9 8 7 5 4 4 4 5 3 8 7 6 6 3 5 6 7 7 8 8 1 6 4 5 4 6 6 5 9 15 13 10 11 13 13 15
1 0 0 2 3 1 0 0 0 3 3 1 1 1 0 0 0 2 1 1 1 1 1 0 2 4 4 1 1 1 2 2 3 3 1 2 5 0 2 1 1 0 1 0 0 2 2 4 2 1 2 7 7 5 2 3 1 6 3 5 0 3 1 2 0 3 3 3 3 10 10 9 2 5 6 5 7 8 10 14 13 14 10 10 12 12 15 15
0 1 2 2 1 1 0 1 1 1 0 4 3 1 1 1 0 1 1 0 0 1 0 1 1 5 2 1 0 3 2 2 2 6 3 2 3 1 0 2 1 1 2 0 0 2 1 4 3 1 4 7 3 2 5 5 5 4 5 9 10 6 4 3 2 2 1 6 8 6 7 5 6 7 6 5 8 11 10 12 12 14 8 10 13 15 16 14
2 0 1 2 1 0 1 1 1 1 2 1 1 1 0 1 1 0 1 1 2 1 0 0 2 0 4 1 3 2 2 3 4 3 3 4 2 4 3 2 1 1 1 1 0 1 1 1 3 2 3 5 6 4 9 7 5 3 4 7 7 2 1 2 1 4 4 3 4 5 6 2 6 7 10 11 9 8 8 11 14 13 9 10 11 17 19 12
Wind_Direction
39 28 16 11 8 4 7 23 25 19 11 9 4 360 354 350 344 338 332 324 318 325 329 335 338 333 336 349 6 357 356 68 11 18 48 219 211 274 284 285 288 301 312 319 325 16 341 352 3 319 8 78 268 54 262 47 50 61 49 109 26 215 61 259 110 191 199 133 221 197 197 158 196 310 268 83 298 202 255 209 278 299 286 138 124 124 132 135
45 32 20 11 6 358 357 7 20 17 10 0 358 357 353 346 339 332 331 327 326 327 336 339 333 335 342 340 349 345 12 100 119 60 111 219 235 271 277 282 288 299 312 25 27 354 1 340 333 351 360 342 330 109 19 303 48 99 35 78 204 195 224 55 180 0 81 221 181 203 206 177 232 157 238 164 278 238 270 259 223 260 266 54 117 133 134 140
43 36 25 16 4 2 358 359 10 15 4 359 352 347 349 343 335 325 321 319 321 319 335 336 344 348 352 331 327 332 16 11 68 6 289 228 287 321 321 310 298 303 50 331 282 338 235 277 299 343 328 100 331 194 75 294 55 283 113 16 238 206 110 50 63 49 96 177 163 164 233 164 228 136 124 208 240 223 227 240 281 228 236 183 169 157 153 153
33 39 31 18 7 2 3 1 3 8 359 351 342 334 339 340 335 324 322 321 324 327 338 346 350 11 1 330 330 323 80 67 34 269 289 331 337 333 329 322 305 295 336 201 244 285 288 301 300 277 318 69 291 60 54 302 75 307 70 161 221 178 113 311 59 0 348 60 101 157 46 100 241 187 151 216 299 256 251 221 198 219 227 193 181 170 163 162
8 19 29 21 8 359 359 359 2 1 349 340 336 332 338 336 336 332 327 326 327 335 345 346 357 12 343 330 329 56 73 44 284 256 303 341 338 332 326 319 302 156 135 269 333 291 290 277 296 340 88 288 359 32 350 337 120 63 150 178 227 25 87 225 121 22 339 310 91 117 122 225 350 115 205 163 222 257 209 231 207 226 226 185 175 183 167 170
359 5 5 8 4 356 354 355 358 348 334 328 328 339 336 333 328 326 323 321 321 338 344 348 357 6 302 324 11 39 78 226 267 317 316 338 339 329 325 319 301 101 31 2 0 297 320 297 178 206 327 87 134 105 285 351 118 46 315 74 19 291 139 200 61 307 48 20 56 121 224 347 248 266 246 199 217 237 204 181 180 154 153 162 171 160 173 177
356 356 357 356 353 351 351 351 343 333 325 313 316 341 331 325 320 319 318 320 322 333 346 344 350 2 307 13 10 61 107 226 350 287 338 339 336 333 330 327 53 49 69 342 320 337 333 354 45 220 91 58 358 113 270 294 10 118 210 135 0 80 109 107 145 3 354 80 150 196 9 281 279 297 251 228 241 241 238 233 208 175 137 126 140 172 179 188
353 351 349 351 346 343 351 340 328 318 314 324 332 333 324 318 316 312 311 312 315 321 343 350 345 346 63 63 54 4 50 259 280 283 327 344 335 333 340 337 43 332 347 233 292 355 328 37 21 64 72 137 220 104 303 39 24 91 135 163 209 86 166 136 149 149 234 285 238 17 318 257 217 232 331 261 257 258 249 231 236 170 145 143 141 172 187 195
352 344 348 349 342 340 338 335 326 328 328 337 333 323 317 312 309 305 301 304 303 304 341 3 354 342 166 84 106 79 280 240 252 297 332 339 331 336 4 2 338 343 211 32 35 7 93 308 53 73 233 92 17 101 339 105 318 129 192 146 164 157 151 158 141 219 204 249 211 172 240 262 260 272 262 257 270 262 243 247 231 181 173 170 166 170 167 187
345 344 345 347 345 339 337 342 348 338 338 327 315 310 310 307 305 300 297 297 298 297 336 29 3 335 2 62 37 21 261 275 297 325 326 333 337 349 349 342 355 349 53 357 31 32 64 296 119 279 125 78 91 109 143 99 204 153 67 107 178 194 141 201 182 235 217 220 206 214 238 262 263 198 291 296 260 258 189 221 238 179 188 171 154 180 199 162
348 341 348 350 347 345 347 349 340 335 321 307 300 306 307 306 302 300 296 296 305 306 318 346 349 352 38 129 151 226 158 61 295 326 325 338 350 349 328 323 337 20 87 52 57 27 239 74 297 331 54 220 76 309 104 221 165 120 139 24 58 184 179 200 234 281 170 305 244 245 264 249 259 147 236 248 252 125 147 182 109 146 166 169 174 171 201 197
352 351 353 352 353 350 347 340 331 322 312 303 295 294 305 301 300 292 293 300 305 308 322 335 340 86 117 73 106 207 235 238 302 312 335 349 331 300 288 288 341 10 80 106 344 309 76 283 59 78 188 135 30 114 23 231 79 184 103 79 298 295 310 213 200 243 114 270 236 239 332 39 146 217 239 240 245 158 141 149 224 225 222 158 160 155 175 197
355 0 354 353 352 348 339 332 323 317 312 307 301 302 304 298 292 292 302 319 313 312 321 351 344 103 86 29 248 242 251 303 352 331 334 0 317 309 259 264 342 22 93 124 173 303 323 46 119 75 224 104 160 120 199 102 246 60 43 138 21 4 316 257 185 129 90 251 6 3 1 267 225 242 261 266 202 140 107 209 245 244 226 170 133 149 191 226
347 354 357 355 353 345 337 332 328 318 302 302 311 308 300 294 288 289 296 288 290 303 329 336 13 58 85 236 269 241 254 49 349 20 342 340 18 315 338 324 345 3 37 97 277 289 1 50 89 129 83 86 188 273 70 337 41 137 258 75 153 67 277 276 113 190 37 243 10 46 240 288 255 258 260 247 186 151 172 236 292 286 207 144 142 136 156 193
346 348 353 354 347 337 338 338 334 326 316 316 313 308 299 295 295 296 295 320 310 327 331 340 113 62 48 275 240 292 201 59 36 300 288 23 19 340 348 333 333 307 281 159 210 289 322 65 67 45 60 278 67 74 6 19 354 135 47 301 318 161 282 276 327 146 187 297 134 81 225 248 298 288 273 194 150 140 164 14 29 58 73 128 126 157 164 186
335 342 342 341 342 343 342 340 333 329 322 312 307 302 295 282 295 308 294 266 287 314 310 36 345 78 96 333 264 292 8 36 325 276 284 85 62 261 275 292 287 302 307 303 1 351 349 91 87 177 118 18 60 94 50 38 327 343 133 266 302 10 264 345 269 159 177 315 299 187 255 315 307 282 293 278 171 158 96 63 63 66 78 98 128 129 144 115
334 339 330 337 336 335 334 333 331 327 322 314 308 291 280 279 296 299 295 292 300 289 68 48 309 83 105 250 290 354 301 286 275 5 350 310 189 242 341 345 324 334 303 297 314 35 305 53 256 34 47 136 179 105 45 24 334 309 37 217 223 250 309 310 290 305 3 121 292 286 187 243 258 300 299 302 215 118 102 101 82 77 77 88 104 93 55 55
335 332 333 335 333 330 329 329 329 329 324 316 303 272 279 302 306 323 342 46 280 151 66 90 88 43 311 6 5 293 240 290 344 289 276 267 234 316 334 316 311 341 340 250 327 204 286 129 40 192 3 356 44 51 94 260 209 223 291 336 316 334 246 229 292 264 34 33 203 288 251 269 275 312 316 331 87 109 120 106 94 86 82 74 59 67 79 81
341 341 338 336 329 328 329 328 328 329 327 313 296 288 244 246 293 159 49 341 44 353 46 311 27 158 212 277 297 326 323 248 270 50 321 16 345 294 288 242 269 332 331 94 271 162 343 70 28 39 301 233 216 141 180 224 163 198 187 202 198 261 289 292 249 268 129 338 296 246 240 284 294 346 338 8 112 109 120 100 85 85 68 68 78 75 79 83
340 342 337 333 329 327 329 329 327 328 340 348 353 9 19 23 2 321 343 33 72 180 156 239 188 271 325 328 331 279 258 62 336 303 337 336 341 353 321 171 284 143 153 206 296 132 135 129 206 230 218 213 224 173 176 203 159 164 138 158 237 241 277 279 249 251 112 331 242 241 251 279 286 359 318 315 69 92 92 99 91 70 77 80 79 84 83 83
330 337 332 325 322 323 327 328 327 324 332 14 334 54 81 268 41 314 322 287 257 180 158 244 184 181 205 244 300 10 15 325 127 326 8 294 188 84 359 68 7 336 256 197 147 286 70 22 268 221 208 184 186 80 59 57 88 168 169 226 279 227 267 252 238 269 279 103 285 302 326 290 281 349 284 265 100 96 110 90 85 92 86 86 84 81 78 84
338 337 327 323 320 325 325 327 322 324 328 118 54 82 114 146 150 194 119 322 320 239 212 260 195 335 326 284 201 131 115 301 317 322 311 18 207 50 299 57 284 261 282 18 18 16 24 204 241 193 136 104 71 63 85 138 207 23 191 239 324 277 240 289 309 343 265 55 263 334 328 292 307 314 353 113 95 92 90 97 107 103 98 87 84 82 79 68
345 339 335 326 327 324 322 316 322 327 18 32 32 54 85 271 343 337 95 203 279 313 36 14 5 332 343 309 345 51 27 334 284 347 339 356 9 69 308 33 359 275 339 16 235 315 346 294 221 342 72 108 342 80 74 37 45 224 322 60 245 244 9 304 280 314 263 175 272 345 341 293 348 32 55 53 98 94 92 98 99 102 103 101 99 98 88 80
347 346 334 328 322 321 319 316 312 13 28 110 86 110 287 24 22 42 79 214 267 310 105 234 157 228 312 9 315 48 72 286 114 293 337 31 76 244 42 101 345 17 287 29 134 186 217 198 281 67 47 122 215 285 116 78 287 297 182 212 267 299 278 180 255 300 298 314 334 313 328 317 325 119 68 49 75 90 81 86 80 72 86 103 97 80 84 86
354 348 339 332 328 327 323 329 40 325 211 51 67 296 345 20 66 87 97 329 15 323 195 346 122 318 266 312 13 21 280 338 278 233 306 57 324 34 198 237 91 291 222 263 25 334 293 258 43 79 339 68 110 327 258 159 310 316 224 188 198 180 323 315 325 13 12 339 341 86 9 332 344 119 129 126 79 81 74 89 85 86 80 78 79 73 62 58
356 350 347 339 335 329 313 46 311 277 58 65 229 308 332 7 71 86 97 87 350 267 17 303 30 306 115 339 357 181 125 309 197 245 128 193 155 149 339 36 127 250 269 342 263 214 223 354 88 173 140 40 86 211 252 125 171 45 266 179 162 160 141 282 330 42 328 198 282 48 166 262 334 174 139 129 100 93 74 87 91 85 85 82 84 80 69 63
353 347 340 330 336 344 58 306 250 43 18 330 333 322 324 342 73 65 42 357 36 277 73 230 60 292 75 252 263 265 26 293 337 338 27 333 34 255 109 275 12 302 205 218 37 297 79 356 36 47 88 70 57 10 322 129 105 259 221 163 217 322 305 294 108 152 236 278 296 180 168 168 294 273 182 144 104 104 89 89 91 96 96 90 86 84 74 65
2 347 331 322 326 38 161 254 8 46 210 291 322 322 329 301 81 85 78 40 328 32 14 314 187 305 70 291 56 94 223 310 29 269 199 254 81 345 101 228 197 246 300 68 263 258 101 238 109 105 71 84 230 201 294 124 143 221 227 188 269 246 253 117 131 220 231 24 289 329 166 137 248 272 118 144 109 105 120 110 109 99 93 94 89 83 76 66
358 354 342 320 320 339 139 120 112 105 263 300 301 325 324 17 80 110 112 106 243 45 200 14 277 26 326 7 29 38 352 7 126 259 297 80 59 149 18 308 131 269 332 139 202 281 325 178 211 142 129 269 230 265 243 100 357 271 203 345 274 201 121 159 189 134 328 94 274 275 194 163 283 192 176 345 113 152 157 139 127 114 106 99 86 79 74 64
347 351 356 350 21 38 351 35 66 229 234 294 309 319 13 76 36 34 26 285 48 336 210 256 58 294 26 19 329 1 37 317 191 304 33 98 319 33 22 105 79 47 325 350 194 214 270 264 174 92 191 202 185 269 185 83 235 229 84 332 355 38 73 43 92 100 51 357 259 243 230 151 274 212 197 157 211 172 149 116 93 87 81 80 85 86 75 66
350 353 4 4 82 227 110 20 285 229 261 289 306 29 82 44 100 101 28 255 38 275 13 15 285 8 27 33 334 312 23 338 328 23 345 8 345 26 7 61 25 52 28 0 318 317 5 347 94 294 45 326 114 342 335 53 34 61 28 43 358 18 21 38 351 48 80 282 257 300 184 106 174 267 226 258 354 140 138 132 121 105 96 90 86 78 68 59
348 1 358 24 285 60 70 305 273 310 328 303 332 38 85 5 8 85 268 337 16 307 67 294 318 56 352 343 121 318 323 331 351 46 23 15 35 35 348 89 347 22 345 12 312 338 340 117 301 329 290 114 146 35 315 17 8 53 39 34 45 288 26 330 21 339 201 207 263 7 28 345 241 235 191 112 112 146 139 134 126 117 100 89 79 79 70 59
349 352 350 9 344 45 105 223 337 316 8 0 46 56 53 91 352 298 317 341 249 59 300 135 255 341 306 40 334 311 310 4 330 76 145 350 95 11 291 79 266 150 309 275 318 13 289 304 360 293 15 355 99 64 314 18 25 32 36 85 71 15 11 265 273 237 288 296 228 103 33 224 213 23 212 127 130 123 115 109 110 106 107 99 88 76 65 44
345 355 56 316 18 169 231 233 228 33 15 66 68 28 44 56 270 68 292 288 272 330 332 321 318 351 41 79 316 352 11 266 35 324 43 306 56 34 324 344 35 359 76 309 53 328 1 345 295 75 53 32 55 158 186 205 253 249 185 138 179 138 163 273 249 260 228 230 273 263 25 231 3 191 169 154 115 96 90 90 92 95 103 102 91 73 57 30
321 336 144 332 0 294 201 246 317 150 53 58 49 80 102 252 214 305 289 310 311 331 279 315 316 25 342 24 307 354 105 311 16 5 11 71 348 77 336 327 328 81 37 52 280 69 205 217 253 288 223 78 175 259 128 78 36 256 175 94 68 231 124 188 206 223 280 316 347 311 190 301 149 53 156 87 87 75 83 72 70 63 63 64 51 54 28 8
354 323 145 301 41 288 172 230 11 51 69 53 74 44 95 202 299 102 258 202 287 351 305 351 76 37 319 328 321 49 301 66 300 40 328 81 199 88 293 309 3 353 69 93 253 333 20 308 237 312 40 155 175 318 331 67 18 274 49 281 206 174 132 302 330 275 4 37 262 177 30 35 28 35 97 67 77 49 64 63 64 57 51 58 34 32 4 345
355 344 7 323 329 280 269 109 59 72 56 88 89 65 206 330 171 186 318 64 268 206 7 41 312 61 345 311 290 342 311 54 291 51 322 114 15 29 349 329 201 5 47 119 326 180 165 262 284 98 314 262 219 145 321 356 177 61 316 244 288 122 126 130 238 323 35 232 269 140 203 191 150 250 165 67 81 55 65 65 59 51 44 48 9 360 350 347
345 44 135 350 270 278 91 41 42 43 78 79 75 160 1 119 315 167 280 352 5 345 75 71 276 88 320 26 312 343 311 63 308 30 294 9 255 91 356 344 358 136 323 321 133 280 85 325 300 301 249 273 354 29 356 315 16 156 195 260 45 303 349 308 87 324 345 297 276 288 249 228 186 233 149 196 117 91 63 62 51 32 23 3 358 346 342 340
30 74 14 283 276 122 243 91 65 72 60 56 346 55 319 131 313 97 232 187 207 151 78 252 189 313 87 358 261 320 348 14 319 347 51 339 26 102 99 179 281 17 322 275 283 294 6 206 295 309 104 304 338 72 298 290 323 338 20 13 255 106 197 115 205 189 123 270 4 291 35 255 215 222 158 131 132 112 65 52 25 11 5 357 345 338 344 356
40 37 327 266 283 79 135 72 58 41 66 82 251 122 198 81 259 276 267 178 309 80 242 23 336 315 0 245 101 0 307 267 307 278 87 297 108 16 76 4 50 307 340 3 256 2 299 140 261 279 299 349 334 145 209 154 147 349 36 318 355 301 220 139 251 161 206 223 220 264 323 292 325 52 112 115 103 92 81 37 10 342 344 345 346 352 4 7
29 102 268 277 311 123 44 44 48 44 92 258 86 144 31 135 322 301 286 183 309 276 167 169 149 94 244 2 342 296 302 333 312 301 214 337 73 311 81 62 346 322 329 13 46 337 327 355 229 310 349 303 250 227 193 193 173 171 162 206 178 123 292 318 272 10 65 109 247 312 275 29 32 57 90 95 95 89 82 61 8 340 345 350 354 6 8 0
75 37 281 280 326 54 65 45 355 54 91 78 349 283 10 110 29 291 357 315 98 229 356 101 240 139 352 306 219 318 12 313 277 30 304 132 334 106 205 145 262 240 43 307 348 259 140 233 91 287 231 249 258 246 216 210 207 214 140 226 162 150 105 114 268 281 7 257 150 186 319 272 4 66 89 96 99 104 87 62 10 342 349 356 1 1 351 355
53 189 247 292 312 72 62 56 312 36 62 233 280 356 353 14 154 230 67 328 7 104 3 52 215 81 218 146 337 11 38 266 268 263 250 357 237 222 251 6 325 348 136 313 12 298 62 100 351 276 291 305 318 289 300 305 135 353 357 45 91 269 181 180 189 189 158 270 316 287 225 236 162 95 100 95 106 112 70 60 25 0 5 354 1 351 351 17
178 274 326 303 30 86 79 90 348 324 291 309 64 209 323 145 48 8 10 341 117 348 97 312 334 83 236 99 135 254 256 26 280 59 341 18 300 37 320 314 325 12 86 263 122 310 29 286 129 308 344 333 343 355 352 338 50 106 256 331 84 69 75 137 96 44 333 218 203 137 252 230 175 156 102 90 58 75 47 12 33 18 351 345 346 0 21 11
75 324 316 300 4 56 109 184 134 140 267 106 76 14 359 4 48 200 157 296 353 139 59 335 205 270 309 234 243 252 270 183 287 310 114 208 261 54 284 253 264 165 257 259 261 293 162 245 70 312 317 324 324 328 299 300 284 289 56 63 7 109 130 352 278 344 125 284 136 198 261 264 156 176 155 116 117 128 88 50 24 29 7 2 359 14 13 4
39 69 306 344 8 32 57 29 108 132 91 34 40 302 114 2 334 286 105 319 204 315 158 232 336 99 254 33 347 300 295 227 166 275 32 308 305 324 222 348 95 197 252 265 306 80 224 310 181 168 169 220 235 250 240 36 326 311 281 286 267 46 168 107 108 122 214 254 278 244 241 313 317 359 3 359 11 3 358 2 6 359 357 357 12 11 1 345
110 73 340 330 344 43 64 21 22 42 83 167 67 278 2 352 253 348 155 25 315 119 301 150 237 44 312 54 297 317 249 325 311 2 273 227 261 250 312 69 336 237 317 354 222 83 51 345 272 230 238 241 270 273 276 315 275 276 284 288 234 177 168 145 175 233 175 32 289 207 122 336 309 14 1 356 2 1 359 359 355 354 349 352 359 352 340 348
62 256 115 212 118 300 20 342 43 41 359 75 99 101 347 7 11 20 332 173 266 350 86 327 46 264 191 206 130 348 325 323 83 248 334 249 341 330 5 13 29 9 71 330 63 103 135 243 276 81 276 267 266 271 280 292 253 250 253 240 216 203 131 175 231 231 205 217 245 278 349 334 324 22 345 352 3 356 350 355 345 332 339 5 351 353 356 353
116 165 138 314 40 250 144 248 55 64 28 59 122 72 1 64 14 224 179 321 22 329 95 327 309 331 300 245 106 252 323 6 327 255 179 299 264 329 339 346 307 80 53 358 347 158 78 252 250 174 281 290 286 276 281 249 269 277 255 257 202 162 206 204 238 232 191 237 263 303 315 315 84 345 358 338 358 348 340 338 344 354 358 358 360 347 352 346
334 100 309 4 94 112 269 18 56 55 54 335 82 295 153 191 214 331 350 90 340 310 358 118 275 317 303 307 113 170 232 198 222 275 278 97 320 111 240 190 256 318 120 206 135 306 116 272 29 299 328 292 291 300 299 250 266 281 5 349 331 168 158 226 237 318 348 316 338 324 323 312 138 11 348 340 353 351 354 1 355 345 354 353 344 345 348 347
183 140 150 105 32 302 5 33 47 78 64 344 71 294 57 329 294 214 257 124 163 280 24 267 304 328 331 293 274 253 220 191 209 220 226 180 240 228 124 276 129 286 333 1 53 312 55 263 29 64 2 296 301 325 311 341 294 294 7 14 3 6 9 341 47 340 53 293 304 323 321 297 330 351 338 349 354 356 354 345 343 339 352 346 349 344 344 357
80 260 93 108 82 269 41 325 16 62 356 232 145 271 103 277 249 56 347 73 62 89 169 230 273 65 313 22 259 242 225 206 220 231 221 232 225 266 237 220 147 182 268 196 212 135 164 87 353 351 355 266 268 335 323 322 337 13 353 339 321 3 34 320 295 333 329 327 333 328 266 0 319 331 338 339 351 343 351 342 339 334 355 347 344 350 347 347